Time,TemperatureF,DewpointF,PressureIn,WindDirection,WindDirectionDegrees,WindSpeedMPH,WindSpeedGustMPH,Humidity,HourlyPrecipIn,Conditions,Clouds,dailyrainin,SoftwareType,DateUTC
2013-02-01 00:00:00,48.3,26.7,29.58,NW,315,0.0,0.0,43,0.00,,,0.00,WUHU216HW,2013-02-01 06:00:00,
2013-02-01 00:05:00,48.0,26.4,29.58,West,270,0.0,0.0,43,0.00,,,0.00,WUHU216HW,2013-02-01 06:05:00,
2013-02-01 00:10:00,47.8,26.2,29.58,ENE,68,0.0,0.0,43,0.00,,,0.00,WUHU216HW,2013-02-01 06:10:00,
2013-02-01 00:15:00,47.4,26.4,29.58,ENE,68,0.0,0.0,44,0.00,,,0.00,WUHU216HW,2013-02-01 06:15:00,
2013-02-01 00:20:00,47.4,27.0,29.58,ENE,68,0.0,0.0,45,0.00,,,0.00,WUHU216HW,2013-02-01 06:20:00,
2013-02-01 00:25:00,47.4,26.4,29.58,ENE,68,0.0,0.0,44,0.00,,,0.00,WUHU216HW,2013-02-01 06:25:00,
2013-02-01 00:30:00,47.3,26.8,29.58,ENE,68,0.0,0.0,45,0.00,,,0.00,WUHU216HW,2013-02-01 06:30:00,
2013-02-01 00:35:00,47.1,26.7,29.58,ENE,68,0.0,0.0,45,0.00,,,0.00,WUHU216HW,2013-02-01 06:35:00,
2013-02-01 00:40:00,47.1,27.2,29.58,ENE,68,0.0,0.0,46,0.00,,,0.00,WUHU216HW,2013-02-01 06:40:00,
2013-02-01 00:45:00,47.1,26.7,29.58,ENE,68,0.0,0.0,45,0.00,,,0.00,WUHU216HW,2013-02-01 06:45:00,
2013-02-01 00:50:00,46.9,27.0,29.58,North,0,0.0,0.0,46,0.00,,,0.00,WUHU216HW,2013-02-01 06:50:00,
2013-02-01 00:55:00,46.7,26.9,29.58,North,0,0.0,0.0,46,0.00,,,0.00,WUHU216HW,2013-02-01 06:55:00,
2013-02-01 01:00:00,46.9,27.0,29.58,NW,315,0.0,0.0,46,0.00,,,0.00,WUHU216HW,2013-02-01 07:00:00,
2013-02-01 01:05:00,46.7,27.4,29.58,NW,315,0.0,0.0,47,0.00,,,0.00,WUHU216HW,2013-02-01 07:05:00,
2013-02-01 01:10:00,46.7,26.9,29.58,NW,315,0.0,0.0,46,0.00,,,0.00,WUHU216HW,2013-02-01 07:10:00,
2013-02-01 01:15:00,46.2,26.4,29.58,NW,315,0.0,0.0,46,0.00,,,0.00,WUHU216HW,2013-02-01 07:15:00,
2013-02-01 01:20:00,46.5,27.3,29.58,NW,315,0.0,0.0,47,0.00,,,0.00,WUHU216HW,2013-02-01 07:20:00,
2013-02-01 01:25:00,46.2,26.4,29.59,NW,315,0.0,0.0,46,0.00,,,0.00,WUHU216HW,2013-02-01 07:25:00,
2013-02-01 01:30:00,46.2,26.4,29.60,NW,315,0.0,0.0,46,0.00,,,0.00,WUHU216HW,2013-02-01 07:30:00,
2013-02-01 01:35:00,46.2,26.4,29.60,NW,315,0.0,0.0,46,0.00,,,0.00,WUHU216HW,2013-02-01 07:35:00,
2013-02-01 01:40:00,46.5,26.7,29.60,NW,315,0.0,0.0,46,0.00,,,0.00,WUHU216HW,2013-02-01 07:40:00,
2013-02-01 01:45:00,46.0,26.2,29.60,ESE,113,0.0,2.2,46,0.00,,,0.00,WUHU216HW,2013-02-01 07:45:00,
2013-02-01 01:50:00,46.0,28.8,29.61,South,180,0.0,2.2,51,0.00,,,0.00,WUHU216HW,2013-02-01 07:50:00,
2013-02-01 01:55:00,46.2,29.9,29.60,SW,225,0.0,0.0,53,0.00,,,0.00,WUHU216HW,2013-02-01 07:55:00,
2013-02-01 02:00:00,46.2,30.3,29.60,WNW,293,0.0,0.0,54,0.00,,,0.00,WUHU216HW,2013-02-01 08:00:00,
2013-02-01 02:05:00,46.5,30.7,29.59,NNW,338,0.0,0.0,54,0.00,,,0.00,WUHU216HW,2013-02-01 08:05:00,
2013-02-01 02:10:00,46.2,30.3,29.59,NW,315,2.0,2.0,54,0.00,,,0.00,WUHU216HW,2013-02-01 08:10:00,
2013-02-01 02:15:00,46.5,30.2,29.60,WNW,293,0.0,2.0,53,0.00,,,0.00,WUHU216HW,2013-02-01 08:15:00,
2013-02-01 02:20:00,46.5,30.2,29.60,WSW,248,0.0,1.3,53,0.00,,,0.00,WUHU216HW,2013-02-01 08:20:00,
2013-02-01 02:25:00,46.5,30.2,29.60,NNW,338,0.0,0.0,53,0.00,,,0.00,WUHU216HW,2013-02-01 08:25:00,
2013-02-01 02:30:00,46.9,31.0,29.59,NNW,338,0.0,0.0,54,0.00,,,0.00,WUHU216HW,2013-02-01 08:30:00,
2013-02-01 02:35:00,46.9,31.0,29.60,East,90,0.0,0.0,54,0.00,,,0.00,WUHU216HW,2013-02-01 08:35:00,
2013-02-01 02:40:00,47.1,31.2,29.60,East,90,0.0,0.0,54,0.00,,,0.00,WUHU216HW,2013-02-01 08:40:00,
2013-02-01 02:45:00,46.9,31.0,29.60,East,90,0.0,0.0,54,0.00,,,0.00,WUHU216HW,2013-02-01 08:45:00,
2013-02-01 02:50:00,46.9,31.0,29.59,NNW,338,0.0,0.0,54,0.00,,,0.00,WUHU216HW,2013-02-01 08:50:00,
2013-02-01 02:55:00,47.3,31.4,29.60,NW,315,0.0,0.0,54,0.00,,,0.00,WUHU216HW,2013-02-01 08:55:00,
2013-02-01 03:00:00,47.1,31.2,29.60,NW,315,0.0,0.0,54,0.00,,,0.00,WUHU216HW,2013-02-01 09:00:00,
2013-02-01 03:08:00,46.9,31.0,29.60,WNW,293,0.0,0.0,54,0.00,,,0.00,WUHU216HW,2013-02-01 09:08:00,
2013-02-01 03:13:00,46.9,31.5,29.61,WNW,293,0.0,0.0,55,0.00,,,0.00,WUHU216HW,2013-02-01 09:13:00,
2013-02-01 03:18:00,46.9,31.5,29.60,WNW,293,0.0,0.0,55,0.00,,,0.00,WUHU216HW,2013-02-01 09:18:00,
2013-02-01 03:23:00,47.1,31.6,29.60,NW,315,0.0,0.0,55,0.00,,,0.00,WUHU216HW,2013-02-01 09:23:00,
2013-02-01 03:28:00,46.9,31.5,29.61,NW,315,0.0,0.0,55,0.00,,,0.00,WUHU216HW,2013-02-01 09:28:00,
2013-02-01 03:33:00,46.9,31.0,29.61,NW,315,0.0,0.0,54,0.00,,,0.00,WUHU216HW,2013-02-01 09:33:00,
2013-02-01 03:38:00,47.1,31.6,29.61,North,0,0.0,0.0,55,0.00,,,0.00,WUHU216HW,2013-02-01 09:38:00,
2013-02-01 03:43:00,47.1,31.6,29.60,North,0,0.0,0.0,55,0.00,,,0.00,WUHU216HW,2013-02-01 09:43:00,
2013-02-01 03:48:00,47.1,32.1,29.60,NW,315,0.0,0.0,56,0.00,,,0.00,WUHU216HW,2013-02-01 09:48:00,
2013-02-01 03:53:00,47.1,32.5,29.61,West,270,0.0,0.0,57,0.00,,,0.00,WUHU216HW,2013-02-01 09:53:00,
2013-02-01 03:58:00,46.9,32.4,29.62,NNW,338,0.0,0.0,57,0.00,,,0.00,WUHU216HW,2013-02-01 09:58:00,
2013-02-01 04:03:00,46.9,32.4,29.62,South,180,0.0,0.0,57,0.00,,,0.00,WUHU216HW,2013-02-01 10:03:00,
2013-02-01 04:08:00,47.1,32.5,29.62,South,180,0.0,0.0,57,0.00,,,0.00,WUHU216HW,2013-02-01 10:08:00,
2013-02-01 04:13:00,46.9,32.8,29.62,South,180,0.0,0.0,58,0.00,,,0.00,WUHU216HW,2013-02-01 10:13:00,
2013-02-01 04:18:00,46.9,33.3,29.62,SW,225,0.0,0.0,59,0.00,,,0.00,WUHU216HW,2013-02-01 10:18:00,
2013-02-01 04:23:00,46.9,33.3,29.63,East,90,0.0,0.0,59,0.00,,,0.00,WUHU216HW,2013-02-01 10:23:00,
2013-02-01 04:28:00,46.7,33.1,29.61,ESE,113,0.0,0.0,59,0.00,,,0.00,WUHU216HW,2013-02-01 10:28:00,
2013-02-01 04:33:00,46.9,33.8,29.62,WSW,248,0.0,0.0,60,0.00,,,0.00,WUHU216HW,2013-02-01 10:33:00,
2013-02-01 04:38:00,46.7,33.9,29.62,SSW,203,0.0,0.0,61,0.00,,,0.00,WUHU216HW,2013-02-01 10:38:00,
2013-02-01 04:43:00,46.5,34.2,29.62,South,180,0.0,0.0,62,0.00,,,0.00,WUHU216HW,2013-02-01 10:43:00,
2013-02-01 04:48:00,46.7,34.3,29.62,South,180,0.0,0.0,62,0.00,,,0.00,WUHU216HW,2013-02-01 10:48:00,
2013-02-01 04:53:00,46.7,34.3,29.62,ENE,68,0.8,0.8,62,0.00,,,0.00,WUHU216HW,2013-02-01 10:53:00,
2013-02-01 04:58:00,46.9,34.9,29.62,ENE,68,0.0,0.8,63,0.00,,,0.00,WUHU216HW,2013-02-01 10:58:00,
2013-02-01 05:03:00,46.5,35.0,29.62,SE,135,0.0,0.0,64,0.00,,,0.00,WUHU216HW,2013-02-01 11:03:00,
2013-02-01 05:08:00,46.7,35.5,29.62,SE,135,0.0,0.0,65,0.00,,,0.00,WUHU216HW,2013-02-01 11:08:00,
2013-02-01 05:13:00,46.9,36.1,29.62,SE,135,0.0,0.0,66,0.00,,,0.00,WUHU216HW,2013-02-01 11:13:00,
2013-02-01 05:18:00,47.1,36.3,29.62,NE,45,0.0,0.0,66,0.00,,,0.00,WUHU216HW,2013-02-01 11:18:00,
2013-02-01 05:23:00,47.1,36.6,29.62,South,180,0.0,0.0,67,0.00,,,0.00,WUHU216HW,2013-02-01 11:23:00,
2013-02-01 05:28:00,46.9,36.5,29.63,WNW,293,0.0,0.0,67,0.00,,,0.00,WUHU216HW,2013-02-01 11:28:00,
2013-02-01 05:33:00,47.1,36.6,29.63,West,270,0.0,0.0,67,0.00,,,0.00,WUHU216HW,2013-02-01 11:33:00,
2013-02-01 05:38:00,46.9,36.1,29.62,NNW,338,0.0,0.0,66,0.00,,,0.00,WUHU216HW,2013-02-01 11:38:00,
2013-02-01 05:43:00,47.1,36.3,29.63,NNW,338,0.0,0.0,66,0.00,,,0.00,WUHU216HW,2013-02-01 11:43:00,
2013-02-01 05:48:00,46.9,36.1,29.63,NNW,338,0.0,0.0,66,0.00,,,0.00,WUHU216HW,2013-02-01 11:48:00,
2013-02-01 05:53:00,46.5,35.7,29.63,NNW,338,0.0,0.0,66,0.00,,,0.00,WUHU216HW,2013-02-01 11:53:00,
2013-02-01 05:58:00,46.5,35.7,29.64,NW,315,2.6,2.6,66,0.00,,,0.00,WUHU216HW,2013-02-01 11:58:00,
2013-02-01 06:03:00,46.5,35.4,29.64,NNW,338,0.0,2.6,65,0.00,,,0.00,WUHU216HW,2013-02-01 12:03:00,
2013-02-01 06:08:00,46.5,35.0,29.65,WNW,293,0.0,2.6,64,0.00,,,0.00,WUHU216HW,2013-02-01 12:08:00,
2013-02-01 06:13:00,46.2,34.2,29.65,NNW,338,0.0,0.0,63,0.00,,,0.00,WUHU216HW,2013-02-01 12:13:00,
2013-02-01 06:18:00,46.0,34.1,29.65,NNW,338,0.0,0.0,63,0.00,,,0.00,WUHU216HW,2013-02-01 12:18:00,
2013-02-01 06:23:00,46.0,33.7,29.65,North,0,0.0,0.0,62,0.00,,,0.00,WUHU216HW,2013-02-01 12:23:00,
2013-02-01 06:28:00,46.0,34.1,29.65,North,0,0.0,0.0,63,0.00,,,0.00,WUHU216HW,2013-02-01 12:28:00,
2013-02-01 06:33:00,45.6,33.3,29.66,North,0,0.0,0.0,62,0.00,,,0.00,WUHU216HW,2013-02-01 12:33:00,
2013-02-01 06:38:00,45.6,33.7,29.65,NNE,23,0.0,0.0,63,0.00,,,0.00,WUHU216HW,2013-02-01 12:38:00,
2013-02-01 06:43:00,46.0,34.5,29.65,NE,45,0.0,0.0,64,0.00,,,0.00,WUHU216HW,2013-02-01 12:43:00,
2013-02-01 06:48:00,45.5,34.3,29.65,NE,45,0.0,0.0,65,0.00,,,0.00,WUHU216HW,2013-02-01 12:48:00,
2013-02-01 06:53:00,45.5,34.3,29.66,NE,45,0.0,0.0,65,0.00,,,0.00,WUHU216HW,2013-02-01 12:53:00,
2013-02-01 06:58:00,45.5,35.1,29.66,NE,45,0.0,0.0,67,0.00,,,0.00,WUHU216HW,2013-02-01 12:58:00,
2013-02-01 07:03:00,45.5,35.1,29.66,NW,315,0.0,0.0,67,0.00,,,0.00,WUHU216HW,2013-02-01 13:03:00,
2013-02-01 07:08:00,45.3,35.1,29.66,NW,315,0.0,0.0,67,0.00,,,0.00,WUHU216HW,2013-02-01 13:08:00,
2013-02-01 07:13:00,45.5,35.1,29.67,NW,315,0.0,0.0,67,0.00,,,0.00,WUHU216HW,2013-02-01 13:13:00,
2013-02-01 07:18:00,44.6,34.2,29.67,NW,315,0.0,0.0,67,0.00,,,0.00,WUHU216HW,2013-02-01 13:18:00,
2013-02-01 07:23:00,44.4,34.1,29.67,NW,315,0.0,0.0,67,0.00,,,0.00,WUHU216HW,2013-02-01 13:23:00,
2013-02-01 07:28:00,44.4,34.1,29.67,NW,315,0.0,0.0,67,0.00,,,0.00,WUHU216HW,2013-02-01 13:28:00,
2013-02-01 07:33:00,44.2,33.9,29.68,NW,315,0.0,0.0,67,0.00,,,0.00,WUHU216HW,2013-02-01 13:33:00,
2013-02-01 07:38:00,44.2,34.3,29.68,NW,315,0.0,0.0,68,0.00,,,0.00,WUHU216HW,2013-02-01 13:38:00,
2013-02-01 07:43:00,44.4,35.2,29.67,NW,315,0.0,0.0,70,0.00,,,0.00,WUHU216HW,2013-02-01 13:43:00,
2013-02-01 07:48:00,44.6,35.4,29.68,NW,315,0.0,0.0,70,0.00,,,0.00,WUHU216HW,2013-02-01 13:48:00,
2013-02-01 07:53:00,45.1,35.9,29.67,NW,315,0.0,0.0,70,0.00,,,0.00,WUHU216HW,2013-02-01 13:53:00,
2013-02-01 07:58:00,45.5,35.5,29.68,NNW,338,0.0,0.0,68,0.00,,,0.00,WUHU216HW,2013-02-01 13:58:00,
2013-02-01 08:03:00,45.5,35.5,29.67,NNW,338,0.0,0.0,68,0.00,,,0.00,WUHU216HW,2013-02-01 14:03:00,
2013-02-01 08:08:00,45.6,35.7,29.67,NW,315,0.0,0.0,68,0.00,,,0.00,WUHU216HW,2013-02-01 14:08:00,
2013-02-01 08:13:00,46.0,35.6,29.68,NW,315,0.0,0.0,67,0.00,,,0.00,WUHU216HW,2013-02-01 14:13:00,
2013-02-01 08:18:00,46.2,35.4,29.67,NW,315,0.0,0.0,66,0.00,,,0.00,WUHU216HW,2013-02-01 14:18:00,
2013-02-01 08:23:00,47.1,36.3,29.67,NW,315,0.0,0.0,66,0.00,,,0.00,WUHU216HW,2013-02-01 14:23:00,
2013-02-01 08:28:00,47.3,36.0,29.68,NW,315,0.0,0.0,65,0.00,,,0.00,WUHU216HW,2013-02-01 14:28:00,
2013-02-01 08:33:00,48.0,36.3,29.68,ESE,113,0.0,0.0,64,0.00,,,0.00,WUHU216HW,2013-02-01 14:33:00,
2013-02-01 08:38:00,48.3,35.6,29.68,ESE,113,0.0,0.0,61,0.00,,,0.00,WUHU216HW,2013-02-01 14:38:00,
2013-02-01 08:43:00,48.7,35.0,29.68,NNE,23,0.0,0.0,59,0.00,,,0.00,WUHU216HW,2013-02-01 14:43:00,
2013-02-01 08:48:00,48.9,34.7,29.68,ENE,68,0.0,0.0,58,0.00,,,0.00,WUHU216HW,2013-02-01 14:48:00,
2013-02-01 08:53:00,49.2,33.2,29.68,NE,45,0.0,2.9,54,0.00,,,0.00,WUHU216HW,2013-02-01 14:53:00,
2013-02-01 08:58:00,49.2,33.2,29.68,ENE,68,0.0,2.9,54,0.00,,,0.00,WUHU216HW,2013-02-01 14:58:00,
2013-02-01 09:03:00,49.6,33.6,29.68,NE,45,3.1,3.1,54,0.00,,,0.00,WUHU216HW,2013-02-01 15:03:00,
2013-02-01 09:08:00,49.8,33.3,29.68,NNE,23,0.0,3.1,53,0.00,,,0.00,WUHU216HW,2013-02-01 15:08:00,
2013-02-01 09:13:00,50.3,33.8,29.68,East,90,1.7,1.7,53,0.00,,,0.00,WUHU216HW,2013-02-01 15:13:00,
2013-02-01 09:18:00,50.5,33.5,29.68,East,90,2.4,2.4,52,0.00,,,0.00,WUHU216HW,2013-02-01 15:18:00,
2013-02-01 09:23:00,50.7,33.2,29.68,ENE,68,2.0,2.4,51,0.00,,,0.00,WUHU216HW,2013-02-01 15:23:00,
2013-02-01 09:28:00,50.5,32.6,29.67,ENE,68,0.0,2.2,50,0.00,,,0.00,WUHU216HW,2013-02-01 15:28:00,
2013-02-01 09:33:00,50.5,32.6,29.68,ENE,68,0.6,2.0,50,0.00,,,0.00,WUHU216HW,2013-02-01 15:33:00,
2013-02-01 09:38:00,50.5,32.6,29.68,ESE,113,0.6,1.1,50,0.00,,,0.00,WUHU216HW,2013-02-01 15:38:00,
2013-02-01 09:43:00,50.7,32.8,29.67,NE,45,0.0,2.4,50,0.00,,,0.00,WUHU216HW,2013-02-01 15:43:00,
2013-02-01 09:48:00,50.7,32.2,29.67,ESE,113,2.2,3.5,49,0.00,,,0.00,WUHU216HW,2013-02-01 15:48:00,
2013-02-01 09:53:00,51.0,33.1,29.67,ENE,68,1.3,3.5,50,0.00,,,0.00,WUHU216HW,2013-02-01 15:53:00,
2013-02-01 09:58:00,51.4,33.4,29.68,ENE,68,2.4,2.4,50,0.00,,,0.00,WUHU216HW,2013-02-01 15:58:00,
2013-02-01 10:03:00,51.6,32.5,29.68,ENE,68,5.5,5.5,48,0.00,,,0.00,WUHU216HW,2013-02-01 16:03:00,
2013-02-01 10:08:00,51.6,32.5,29.68,NE,45,1.5,5.5,48,0.00,,,0.00,WUHU216HW,2013-02-01 16:08:00,
2013-02-01 10:13:00,52.1,33.0,29.67,ENE,68,2.0,2.6,48,0.00,,,0.00,WUHU216HW,2013-02-01 16:13:00,
2013-02-01 10:18:00,52.5,33.3,29.67,NE,45,3.8,3.8,48,0.00,,,0.00,WUHU216HW,2013-02-01 16:18:00,
2013-02-01 10:24:00,53.2,33.6,29.67,ESE,113,0.8,3.8,48,0.00,,,0.00,WUHU216HW,2013-02-01 16:24:00,
2013-02-01 10:29:00,53.7,33.9,29.67,ENE,68,6.0,6.0,47,0.00,,,0.00,WUHU216HW,2013-02-01 16:29:00,
2013-02-01 10:34:00,54.3,34.3,29.67,NE,45,0.8,6.0,47,0.00,,,0.00,WUHU216HW,2013-02-01 16:34:00,
2013-02-01 10:39:00,54.8,34.3,29.67,South,180,0.6,6.0,46,0.00,,,0.00,WUHU216HW,2013-02-01 16:39:00,
2013-02-01 10:44:00,55.5,34.9,29.66,ENE,68,0.8,2.0,46,0.00,,,0.00,WUHU216HW,2013-02-01 16:44:00,
2013-02-01 10:49:00,55.9,35.3,29.66,ENE,68,0.8,2.0,46,0.00,,,0.00,WUHU216HW,2013-02-01 16:49:00,
2013-02-01 10:54:00,56.4,35.2,29.66,NE,45,1.1,1.1,45,0.00,,,0.00,WUHU216HW,2013-02-01 16:54:00,
2013-02-01 10:59:00,56.4,34.7,29.66,ENE,68,0.6,2.2,44,0.00,,,0.00,WUHU216HW,2013-02-01 16:59:00,
2013-02-01 11:04:00,56.8,35.0,29.65,South,180,1.5,2.2,44,0.00,,,0.00,WUHU216HW,2013-02-01 17:04:00,
2013-02-01 11:09:00,57.0,34.9,29.66,East,90,1.1,2.4,43,0.00,,,0.00,WUHU216HW,2013-02-01 17:09:00,
2013-02-01 11:14:00,57.5,35.7,29.65,ESE,113,0.6,2.4,44,0.00,,,0.00,WUHU216HW,2013-02-01 17:14:00,
2013-02-01 11:19:00,57.9,35.4,29.65,East,90,0.6,1.1,43,0.00,,,0.00,WUHU216HW,2013-02-01 17:19:00,
2013-02-01 11:24:00,58.2,35.2,29.65,East,90,2.6,2.6,42,0.00,,,0.00,WUHU216HW,2013-02-01 17:24:00,
2013-02-01 11:29:00,58.6,36.1,29.64,NE,45,2.6,2.6,43,0.00,,,0.00,WUHU216HW,2013-02-01 17:29:00,
2013-02-01 11:34:00,58.8,36.2,29.65,ENE,68,2.0,2.9,43,0.00,,,0.00,WUHU216HW,2013-02-01 17:34:00,
2013-02-01 11:39:00,59.3,36.1,29.64,NNE,23,0.0,2.9,42,0.00,,,0.00,WUHU216HW,2013-02-01 17:39:00,
2013-02-01 11:44:00,59.7,36.5,29.63,SSE,158,0.0,1.1,42,0.00,,,0.00,WUHU216HW,2013-02-01 17:44:00,
2013-02-01 11:49:00,60.0,36.8,29.63,ESE,113,0.0,0.8,42,0.00,,,0.00,WUHU216HW,2013-02-01 17:49:00,
2013-02-01 11:54:00,60.9,37.6,29.63,SE,135,2.4,2.4,42,0.00,,,0.00,WUHU216HW,2013-02-01 17:54:00,
2013-02-01 11:59:00,61.5,38.1,29.63,ENE,68,1.1,2.4,42,0.00,,,0.00,WUHU216HW,2013-02-01 17:59:00,
2013-02-01 12:04:00,61.7,37.7,29.62,East,90,0.6,2.4,41,0.00,,,0.00,WUHU216HW,2013-02-01 18:04:00,
2013-02-01 12:09:00,62.2,38.1,29.62,ENE,68,1.1,4.0,41,0.00,,,0.00,WUHU216HW,2013-02-01 18:09:00,
2013-02-01 12:14:00,62.4,38.3,29.61,ENE,68,2.9,4.0,41,0.00,,,0.00,WUHU216HW,2013-02-01 18:14:00,
2013-02-01 12:19:00,62.7,38.6,29.61,East,90,1.5,2.9,41,0.00,,,0.00,WUHU216HW,2013-02-01 18:19:00,
2013-02-01 12:24:00,63.3,39.1,29.60,NE,45,0.0,2.9,41,0.00,,,0.00,WUHU216HW,2013-02-01 18:24:00,
2013-02-01 12:29:00,63.8,39.6,29.60,East,90,2.2,5.8,41,0.00,,,0.00,WUHU216HW,2013-02-01 18:29:00,
2013-02-01 12:34:00,64.2,39.9,29.60,East,90,0.6,5.8,41,0.00,,,0.00,WUHU216HW,2013-02-01 18:34:00,
2013-02-01 12:39:00,64.9,40.6,29.59,ENE,68,0.0,3.5,41,0.00,,,0.00,WUHU216HW,2013-02-01 18:39:00,
2013-02-01 12:44:00,65.3,40.3,29.59,East,90,0.0,3.5,40,0.00,,,0.00,WUHU216HW,2013-02-01 18:44:00,
2013-02-01 12:49:00,65.8,40.8,29.59,ESE,113,0.0,1.7,40,0.00,,,0.00,WUHU216HW,2013-02-01 18:49:00,
2013-02-01 12:54:00,66.5,41.5,29.58,SSW,203,0.0,0.0,40,0.00,,,0.00,WUHU216HW,2013-02-01 18:54:00,
2013-02-01 12:59:00,66.7,41.6,29.58,SE,135,0.8,0.8,40,0.00,,,0.00,WUHU216HW,2013-02-01 18:59:00,
2013-02-01 13:04:00,67.2,42.7,29.58,ESE,113,0.0,2.2,41,0.00,,,0.00,WUHU216HW,2013-02-01 19:04:00,
2013-02-01 13:09:00,67.8,42.6,29.57,SSW,203,0.0,4.0,40,0.00,,,0.00,WUHU216HW,2013-02-01 19:09:00,
2013-02-01 13:14:00,68.3,43.7,29.56,SSW,203,9.1,9.1,41,0.00,,,0.00,WUHU216HW,2013-02-01 19:14:00,
2013-02-01 13:19:00,68.7,43.4,29.56,South,180,2.0,9.1,40,0.00,,,0.00,WUHU216HW,2013-02-01 19:19:00,
2013-02-01 13:24:00,69.4,41.8,29.55,ENE,68,0.8,9.1,37,0.00,,,0.00,WUHU216HW,2013-02-01 19:24:00,
2013-02-01 13:29:00,69.6,42.0,29.56,South,180,10.5,10.5,37,0.00,,,0.00,WUHU216HW,2013-02-01 19:29:00,
2013-02-01 13:34:00,70.1,42.5,29.55,SSE,158,0.8,10.5,37,0.00,,,0.00,WUHU216HW,2013-02-01 19:34:00,
2013-02-01 13:39:00,70.5,42.1,29.55,South,180,9.3,10.5,36,0.00,,,0.00,WUHU216HW,2013-02-01 19:39:00,
2013-02-01 13:44:00,70.7,41.5,29.55,SSE,158,9.1,9.3,35,0.00,,,0.00,WUHU216HW,2013-02-01 19:44:00,
2013-02-01 13:49:00,70.8,40.9,29.55,SE,135,0.0,9.3,34,0.00,,,0.00,WUHU216HW,2013-02-01 19:49:00,
2013-02-01 13:54:00,70.8,40.9,29.55,South,180,7.6,9.1,34,0.00,,,0.00,WUHU216HW,2013-02-01 19:54:00,
2013-02-01 13:59:00,70.8,40.2,29.55,South,180,14.5,14.5,33,0.00,,,0.00,WUHU216HW,2013-02-01 19:59:00,
2013-02-01 14:04:00,70.8,40.9,29.54,South,180,7.3,14.5,34,0.00,,,0.00,WUHU216HW,2013-02-01 20:04:00,
2013-02-01 14:09:00,70.8,40.9,29.54,SSE,158,4.2,13.8,34,0.00,,,0.00,WUHU216HW,2013-02-01 20:09:00,
2013-02-01 14:14:00,71.0,41.1,29.53,SE,135,5.8,8.2,34,0.00,,,0.00,WUHU216HW,2013-02-01 20:14:00,
2013-02-01 14:19:00,71.2,40.5,29.53,South,180,17.8,17.8,33,0.00,,,0.00,WUHU216HW,2013-02-01 20:19:00,
2013-02-01 14:24:00,71.2,40.5,29.53,South,180,3.8,17.8,33,0.00,,,0.00,WUHU216HW,2013-02-01 20:24:00,
2013-02-01 14:29:00,71.2,40.5,29.52,SSW,203,9.8,17.8,33,0.00,,,0.00,WUHU216HW,2013-02-01 20:29:00,
2013-02-01 14:34:00,71.2,40.5,29.53,South,180,2.2,10.2,33,0.00,,,0.00,WUHU216HW,2013-02-01 20:34:00,
2013-02-01 14:39:00,71.2,40.5,29.52,ESE,113,3.5,7.3,33,0.00,,,0.00,WUHU216HW,2013-02-01 20:39:00,
2013-02-01 14:44:00,71.2,39.0,29.52,SE,135,11.8,11.8,31,0.00,,,0.00,WUHU216HW,2013-02-01 20:44:00,
2013-02-01 14:49:00,71.2,39.0,29.52,South,180,13.1,13.1,31,0.00,,,0.00,WUHU216HW,2013-02-01 20:49:00,
2013-02-01 14:54:00,71.0,39.6,29.52,SE,135,3.1,13.1,32,0.00,,,0.00,WUHU216HW,2013-02-01 20:54:00,
2013-02-01 14:59:00,70.8,38.7,29.51,SE,135,2.9,13.1,31,0.00,,,0.00,WUHU216HW,2013-02-01 20:59:00,
2013-02-01 15:04:00,70.8,39.4,29.51,ESE,113,3.5,6.2,32,0.00,,,0.00,WUHU216HW,2013-02-01 21:04:00,
2013-02-01 15:09:00,70.7,39.3,29.51,ESE,113,3.5,3.5,32,0.00,,,0.00,WUHU216HW,2013-02-01 21:09:00,
2013-02-01 15:14:00,70.7,39.1,29.51,South,180,2.9,5.1,32,0.00,,,0.00,WUHU216HW,2013-02-01 21:14:00,
2013-02-01 15:19:00,70.5,39.1,29.51,SSE,158,1.3,5.1,32,0.00,,,0.00,WUHU216HW,2013-02-01 21:19:00,
2013-02-01 15:24:00,70.5,39.1,29.51,South,180,10.2,10.2,32,0.00,,,0.00,WUHU216HW,2013-02-01 21:24:00,
2013-02-01 15:29:00,70.3,38.2,29.51,ESE,113,4.6,10.2,31,0.00,,,0.00,WUHU216HW,2013-02-01 21:29:00,
2013-02-01 15:34:00,70.3,38.2,29.50,ESE,113,2.0,9.8,31,0.00,,,0.00,WUHU216HW,2013-02-01 21:34:00,
2013-02-01 15:39:00,70.3,39.0,29.51,SSE,158,8.7,12.9,32,0.00,,,0.00,WUHU216HW,2013-02-01 21:39:00,
2013-02-01 15:44:00,70.1,38.1,29.50,SSE,158,0.0,12.9,31,0.00,,,0.00,WUHU216HW,2013-02-01 21:44:00,
2013-02-01 15:49:00,69.9,38.6,29.50,SSE,158,5.8,6.0,32,0.00,,,0.00,WUHU216HW,2013-02-01 21:49:00,
2013-02-01 15:54:00,69.6,38.3,29.50,South,180,4.4,6.0,32,0.00,,,0.00,WUHU216HW,2013-02-01 21:54:00,
2013-02-01 15:59:00,69.6,38.3,29.50,South,180,6.2,6.2,32,0.00,,,0.00,WUHU216HW,2013-02-01 21:59:00,
2013-02-01 16:04:00,69.6,38.3,29.50,SSE,158,4.9,6.2,32,0.00,,,0.00,WUHU216HW,2013-02-01 22:04:00,
2013-02-01 16:09:00,69.4,38.1,29.50,East,90,0.8,6.2,32,0.00,,,0.00,WUHU216HW,2013-02-01 22:09:00,
2013-02-01 16:14:00,69.4,38.1,29.49,South,180,7.1,15.8,32,0.00,,,0.00,WUHU216HW,2013-02-01 22:14:00,
2013-02-01 16:19:00,69.2,38.0,29.50,SSE,158,5.1,15.8,32,0.00,,,0.00,WUHU216HW,2013-02-01 22:19:00,
2013-02-01 16:24:00,69.2,38.0,29.49,SSE,158,6.0,9.1,32,0.00,,,0.00,WUHU216HW,2013-02-01 22:24:00,
2013-02-01 16:29:00,69.0,37.8,29.49,SE,135,0.0,9.1,32,0.00,,,0.00,WUHU216HW,2013-02-01 22:29:00,
2013-02-01 16:34:00,69.0,37.8,29.50,South,180,5.1,5.1,32,0.00,,,0.00,WUHU216HW,2013-02-01 22:34:00,
2013-02-01 16:39:00,68.7,37.5,29.50,South,180,12.7,12.7,32,0.00,,,0.00,WUHU216HW,2013-02-01 22:39:00,
2013-02-01 16:44:00,68.7,37.5,29.50,SSE,158,8.2,12.7,32,0.00,,,0.00,WUHU216HW,2013-02-01 22:44:00,
2013-02-01 16:49:00,68.5,37.3,29.49,SSW,203,6.2,8.5,32,0.00,,,0.00,WUHU216HW,2013-02-01 22:49:00,
2013-02-01 16:54:00,68.3,37.2,29.49,SE,135,1.7,8.5,32,0.00,,,0.00,WUHU216HW,2013-02-01 22:54:00,
2013-02-01 16:59:00,68.1,37.0,29.49,South,180,4.9,6.2,32,0.00,,,0.00,WUHU216HW,2013-02-01 22:59:00,
2013-02-01 17:04:00,68.0,36.8,29.48,SE,135,0.6,5.8,32,0.00,,,0.00,WUHU216HW,2013-02-01 23:04:00,
2013-02-01 17:09:00,67.8,36.7,29.48,SSE,158,0.6,5.8,32,0.00,,,0.00,WUHU216HW,2013-02-01 23:09:00,
2013-02-01 17:14:00,67.6,36.5,29.48,SSE,158,4.9,5.3,32,0.00,,,0.00,WUHU216HW,2013-02-01 23:14:00,
2013-02-01 17:19:00,67.4,36.4,29.49,SW,225,3.3,5.3,32,0.00,,,0.00,WUHU216HW,2013-02-01 23:19:00,
2013-02-01 17:24:00,67.2,36.3,29.48,South,180,4.9,5.8,32,0.00,,,0.00,WUHU216HW,2013-02-01 23:24:00,
2013-02-01 17:29:00,67.1,36.1,29.48,South,180,6.9,6.9,32,0.00,,,0.00,WUHU216HW,2013-02-01 23:29:00,
2013-02-01 17:34:00,66.9,35.9,29.47,SE,135,0.8,6.9,32,0.00,,,0.00,WUHU216HW,2013-02-01 23:34:00,
2013-02-01 17:39:00,66.7,35.8,29.48,South,180,5.1,6.9,32,0.00,,,0.00,WUHU216HW,2013-02-01 23:39:00,
2013-02-01 17:44:00,66.7,35.8,29.47,SSE,158,4.2,5.1,32,0.00,,,0.00,WUHU216HW,2013-02-01 23:44:00,
2013-02-01 17:49:00,66.3,35.5,29.47,South,180,3.1,4.2,32,0.00,,,0.00,WUHU216HW,2013-02-01 23:49:00,
2013-02-01 17:54:00,66.0,35.2,29.47,South,180,0.0,4.0,32,0.00,,,0.00,WUHU216HW,2013-02-01 23:54:00,
2013-02-01 17:59:00,65.8,35.8,29.46,South,180,1.7,6.4,33,0.00,,,0.00,WUHU216HW,2013-02-01 23:59:00,
2013-02-01 18:04:00,65.4,35.4,29.46,SSE,158,5.8,6.4,33,0.00,,,0.00,WUHU216HW,2013-02-02 00:04:00,
2013-02-01 18:09:00,65.3,35.3,29.46,ESE,113,1.5,5.8,33,0.00,,,0.00,WUHU216HW,2013-02-02 00:09:00,
2013-02-01 18:14:00,64.9,35.0,29.47,SSW,203,4.0,5.8,33,0.00,,,0.00,WUHU216HW,2013-02-02 00:14:00,
2013-02-01 18:19:00,64.7,34.8,29.47,SSE,158,4.4,4.4,33,0.00,,,0.00,WUHU216HW,2013-02-02 00:19:00,
2013-02-01 18:24:00,64.5,34.6,29.47,SSE,158,1.7,4.4,33,0.00,,,0.00,WUHU216HW,2013-02-02 00:24:00,
2013-02-01 18:29:00,64.2,34.3,29.47,South,180,4.6,4.6,34,0.00,,,0.00,WUHU216HW,2013-02-02 00:29:00,
2013-02-01 18:34:00,64.0,34.1,29.47,ESE,113,0.0,4.6,33,0.00,,,0.00,WUHU216HW,2013-02-02 00:34:00,
2013-02-01 18:39:00,63.8,34.0,29.47,SSE,158,0.0,4.6,33,0.00,,,0.00,WUHU216HW,2013-02-02 00:39:00,
2013-02-01 18:44:00,63.5,34.4,29.47,South,180,0.0,0.0,34,0.00,,,0.00,WUHU216HW,2013-02-02 00:44:00,
2013-02-01 18:49:00,63.1,34.1,29.47,SE,135,0.0,0.0,34,0.00,,,0.00,WUHU216HW,2013-02-02 00:49:00,
2013-02-01 18:54:00,63.1,34.1,29.47,SSE,158,0.0,0.0,34,0.00,,,0.00,WUHU216HW,2013-02-02 00:54:00,
2013-02-01 18:59:00,62.7,33.7,29.47,SE,135,0.0,0.8,34,0.00,,,0.00,WUHU216HW,2013-02-02 00:59:00,
2013-02-01 19:04:00,62.4,34.1,29.47,SSE,158,0.0,0.8,35,0.00,,,0.00,WUHU216HW,2013-02-02 01:04:00,
2013-02-01 19:09:00,62.2,34.0,29.47,ESE,113,0.0,0.0,35,0.00,,,0.00,WUHU216HW,2013-02-02 01:09:00,
2013-02-01 19:14:00,61.8,35.1,29.48,SE,135,0.0,0.0,37,0.00,,,0.00,WUHU216HW,2013-02-02 01:14:00,
2013-02-01 19:19:00,61.7,34.9,29.48,ESE,113,0.0,0.0,37,0.00,,,0.00,WUHU216HW,2013-02-02 01:19:00,
2013-02-01 19:24:00,61.5,35.5,29.47,East,90,0.0,0.0,38,0.00,,,0.00,WUHU216HW,2013-02-02 01:24:00,
2013-02-01 19:29:00,61.1,34.4,29.47,SE,135,0.0,0.0,37,0.00,,,0.00,WUHU216HW,2013-02-02 01:29:00,
2013-02-01 19:34:00,60.9,35.0,29.48,ENE,68,0.0,0.0,38,0.00,,,0.00,WUHU216HW,2013-02-02 01:34:00,
2013-02-01 19:40:00,60.6,35.4,29.47,SE,135,0.0,0.0,39,0.00,,,0.00,WUHU216HW,2013-02-02 01:40:00,
2013-02-01 19:45:00,60.4,35.2,29.48,East,90,0.0,0.0,39,0.00,,,0.00,WUHU216HW,2013-02-02 01:45:00,
2013-02-01 19:50:00,60.0,34.9,29.48,East,90,0.0,9.8,39,0.00,,,0.00,WUHU216HW,2013-02-02 01:50:00,
2013-02-01 19:55:00,59.7,35.3,29.48,East,90,0.0,9.8,40,0.00,,,0.00,WUHU216HW,2013-02-02 01:55:00,
2013-02-01 20:00:00,59.5,35.7,29.48,East,90,0.0,0.0,41,0.00,,,0.00,WUHU216HW,2013-02-02 02:00:00,
2013-02-01 20:05:00,59.1,35.4,29.48,ENE,68,0.0,0.0,41,0.00,,,0.00,WUHU216HW,2013-02-02 02:05:00,
2013-02-01 20:10:00,59.0,35.2,29.49,ENE,68,0.8,0.8,41,0.00,,,0.00,WUHU216HW,2013-02-02 02:10:00,
2013-02-01 20:15:00,58.8,35.1,29.49,East,90,0.0,2.0,41,0.00,,,0.00,WUHU216HW,2013-02-02 02:15:00,
2013-02-01 20:20:00,58.8,35.1,29.49,East,90,0.0,2.0,41,0.00,,,0.00,WUHU216HW,2013-02-02 02:20:00,
2013-02-01 20:25:00,58.6,34.9,29.49,East,90,0.0,0.0,41,0.00,,,0.00,WUHU216HW,2013-02-02 02:25:00,
2013-02-01 20:30:00,58.2,35.2,29.49,East,90,0.0,0.0,42,0.00,,,0.00,WUHU216HW,2013-02-02 02:30:00,
2013-02-01 20:35:00,58.1,35.0,29.49,East,90,0.0,0.0,42,0.00,,,0.00,WUHU216HW,2013-02-02 02:35:00,
2013-02-01 20:40:00,57.9,36.0,29.49,ENE,68,0.0,1.5,44,0.00,,,0.00,WUHU216HW,2013-02-02 02:40:00,
2013-02-01 20:45:00,57.5,35.7,29.49,ENE,68,0.0,1.5,44,0.00,,,0.00,WUHU216HW,2013-02-02 02:45:00,
2013-02-01 20:50:00,57.3,36.1,29.49,ENE,68,0.0,0.0,45,0.00,,,0.00,WUHU216HW,2013-02-02 02:50:00,
2013-02-01 20:55:00,57.0,36.9,29.50,ENE,68,1.5,3.8,47,0.00,,,0.00,WUHU216HW,2013-02-02 02:55:00,
2013-02-01 21:00:00,56.6,36.5,29.50,SE,135,0.0,3.8,47,0.00,,,0.00,WUHU216HW,2013-02-02 03:00:00,
2013-02-01 21:05:00,56.4,35.8,29.50,East,90,0.8,1.3,46,0.00,,,0.00,WUHU216HW,2013-02-02 03:05:00,
2013-02-01 21:10:00,56.3,36.2,29.50,ESE,113,0.0,0.8,47,0.00,,,0.00,WUHU216HW,2013-02-02 03:10:00,
2013-02-01 21:15:00,56.4,35.8,29.50,East,90,0.0,3.3,46,0.00,,,0.00,WUHU216HW,2013-02-02 03:15:00,
2013-02-01 21:20:00,56.4,35.2,29.51,SE,135,3.3,3.3,45,0.00,,,0.00,WUHU216HW,2013-02-02 03:20:00,
2013-02-01 21:25:00,56.8,35.0,29.51,SE,135,4.2,8.2,44,0.00,,,0.00,WUHU216HW,2013-02-02 03:25:00,
2013-02-01 21:30:00,57.0,35.2,29.51,SE,135,0.0,8.2,44,0.00,,,0.00,WUHU216HW,2013-02-02 03:30:00,
2013-02-01 21:35:00,57.0,34.6,29.51,SE,135,0.0,4.6,43,0.00,,,0.00,WUHU216HW,2013-02-02 03:35:00,
2013-02-01 21:40:00,57.2,34.8,29.51,South,180,1.3,1.3,43,0.00,,,0.00,WUHU216HW,2013-02-02 03:40:00,
2013-02-01 21:45:00,57.3,34.9,29.51,SSE,158,0.0,1.3,43,0.00,,,0.00,WUHU216HW,2013-02-02 03:45:00,
2013-02-01 21:50:00,57.2,34.8,29.51,South,180,0.0,1.1,43,0.00,,,0.00,WUHU216HW,2013-02-02 03:50:00,
2013-02-01 21:55:00,57.0,34.0,29.51,SSE,158,0.0,0.0,42,0.00,,,0.00,WUHU216HW,2013-02-02 03:55:00,
2013-02-01 22:00:00,57.0,34.6,29.51,SSE,158,0.0,2.9,43,0.00,,,0.00,WUHU216HW,2013-02-02 04:00:00,
2013-02-01 22:05:00,57.0,34.0,29.51,SE,135,0.0,2.9,42,0.00,,,0.00,WUHU216HW,2013-02-02 04:05:00,
2013-02-01 22:10:00,56.8,33.8,29.51,SSE,158,2.4,2.4,42,0.00,,,0.00,WUHU216HW,2013-02-02 04:10:00,
2013-02-01 22:15:00,56.8,33.8,29.51,SE,135,1.5,2.4,42,0.00,,,0.00,WUHU216HW,2013-02-02 04:15:00,
2013-02-01 22:20:00,56.8,33.8,29.51,SE,135,0.0,1.5,42,0.00,,,0.00,WUHU216HW,2013-02-02 04:20:00,
2013-02-01 22:25:00,56.4,33.5,29.51,East,90,0.0,1.5,42,0.00,,,0.00,WUHU216HW,2013-02-02 04:25:00,
2013-02-01 22:30:00,56.4,33.5,29.51,SE,135,0.6,0.6,42,0.00,,,0.00,WUHU216HW,2013-02-02 04:30:00,
2013-02-01 22:35:00,56.3,33.9,29.52,SE,135,0.0,0.6,43,0.00,,,0.00,WUHU216HW,2013-02-02 04:35:00,
2013-02-01 22:40:00,56.3,33.9,29.52,SSE,158,0.0,0.6,43,0.00,,,0.00,WUHU216HW,2013-02-02 04:40:00,
2013-02-01 22:45:00,56.3,33.9,29.52,ESE,113,0.0,0.0,43,0.00,,,0.00,WUHU216HW,2013-02-02 04:45:00,
2013-02-01 22:50:00,56.1,33.8,29.52,South,180,0.0,0.0,43,0.00,,,0.00,WUHU216HW,2013-02-02 04:50:00,
2013-02-01 22:55:00,55.9,33.6,29.52,South,180,0.0,1.1,43,0.00,,,0.00,WUHU216HW,2013-02-02 04:55:00,
2013-02-01 23:00:00,55.9,33.6,29.51,West,270,0.0,1.1,43,0.00,,,0.00,WUHU216HW,2013-02-02 05:00:00,
2013-02-01 23:05:00,55.7,34.0,29.51,SE,135,3.8,3.8,44,0.00,,,0.00,WUHU216HW,2013-02-02 05:05:00,
2013-02-01 23:10:00,55.5,33.8,29.51,East,90,2.4,3.8,44,0.00,,,0.00,WUHU216HW,2013-02-02 05:10:00,
2013-02-01 23:15:00,55.5,34.4,29.51,SSE,158,0.0,3.8,45,0.00,,,0.00,WUHU216HW,2013-02-02 05:15:00,
2013-02-01 23:20:00,55.5,34.4,29.51,South,180,2.9,2.9,45,0.00,,,0.00,WUHU216HW,2013-02-02 05:20:00,
2013-02-01 23:25:00,55.5,34.4,29.51,SSW,203,3.3,3.3,45,0.00,,,0.00,WUHU216HW,2013-02-02 05:25:00,
2013-02-01 23:30:00,55.5,34.9,29.51,ESE,113,6.2,6.2,46,0.00,,,0.00,WUHU216HW,2013-02-02 05:30:00,
2013-02-01 23:35:00,55.4,35.3,29.52,WSW,248,0.0,6.2,47,0.00,,,0.00,WUHU216HW,2013-02-02 05:35:00,
2013-02-01 23:40:00,55.2,35.2,29.51,SE,135,2.2,3.8,47,0.00,,,0.00,WUHU216HW,2013-02-02 05:40:00,
2013-02-01 23:45:00,55.2,35.2,29.51,SSW,203,0.0,2.2,47,0.00,,,0.00,WUHU216HW,2013-02-02 05:45:00,
2013-02-01 23:50:00,55.2,35.7,29.51,East,90,0.0,2.2,48,0.00,,,0.00,WUHU216HW,2013-02-02 05:50:00,
2013-02-01 23:55:00,55.2,36.3,29.51,SSE,158,6.2,6.2,49,0.00,,,0.00,WUHU216HW,2013-02-02 05:55:00,